Tracking 20232 objects as of 18-Jan-2020
HD Live streaming from Space Station
objects crossing your sky now

ISO

Track ISO now!
ISO is classified as:


NORAD ID: 23715
Int'l Code: 1995-062A
Perigee: 460.1 km
Apogee: 70,165.3 km
Inclination: 1.8 °
Period: 1,411.6 minutes
Semi major axis: 41683 km
RCS: 3.9811 m2 (large)
Launch date: November 17, 1995
Source: European Space Agency (ESA)
Launch site: FRENCH GUIANA (FRGUI)
aabbcc
Your satellite tracking list
Your tracking list is empty




NASA's NSSDC Master Catalog

Two Line Element Set (TLE):
1 23715U 95062A   20017.05043810 -.00000426 +00000-0 +75090-3 0  9998
2 23715 001.8275 331.1892 8361212 338.3601 000.8695 01.02012657089770
Source of the keplerian elements: AFSPC